Wind_Speed
32 33 33 33 37 40 36 32 27 23 26 27 31 34 35 38 35 28 23 26 28 26 27 26 20 24 24 25 21 20 19 18 16 14 14 14 13 14 17 17 17 18 20 19 17 18 17 14 11
35 37 39 38 40 40 37 35 32 23 26 30 33 36 37 36 34 30 28 30 29 26 26 27 25 22 25 26 23 21 21 20 18 17 17 17 16 16 18 17 18 19 21 20 17 17 15 13 10
38 39 41 44 43 41 40 35 32 28 28 33 37 38 40 36 31 27 29 34 33 33 30 28 24 22 26 27 27 24 23 22 20 19 19 19 18 18 18 19 20 19 20 21 18 17 15 13 10
37 40 44 45 43 43 44 42 36 32 30 34 40 42 42 37 31 27 27 30 34 32 33 32 27 26 27 25 28 26 25 23 22 22 21 21 21 20 19 20 21 20 18 21 19 16 15 12 10
39 41 43 45 44 46 46 46 41 37 31 34 42 44 44 40 36 30 26 27 29 30 32 32 28 27 30 28 29 28 27 26 25 23 23 23 22 22 20 20 21 20 17 17 20 18 14 12 10
45 46 48 47 46 46 48 48 47 42 35 35 42 49 47 44 38 34 30 33 31 30 33 31 30 29 30 30 29 31 30 29 27 25 25 25 24 24 23 20 20 20 17 16 18 19 16 13 11
49 51 52 52 51 51 49 48 49 48 42 40 42 51 51 47 42 36 35 35 34 35 35 32 31 33 29 30 31 31 32 31 29 28 26 26 25 25 25 23 22 20 19 16 17 18 17 14 13
53 55 57 55 55 58 56 56 50 51 44 43 44 51 53 51 47 42 41 39 34 36 36 35 32 32 31 31 31 30 32 33 31 28 27 27 26 26 25 24 23 21 20 19 19 18 17 16 16
56 60 61 59 61 62 64 64 61 59 51 46 48 54 54 52 51 47 45 43 39 36 35 36 35 32 31 31 31 32 34 33 31 31 29 28 27 27 25 24 24 22 20 20 20 20 19 19 16
59 60 60 62 67 68 69 70 68 65 61 51 52 56 58 54 54 52 50 47 42 36 36 37 36 33 33 33 32 33 33 34 33 32 29 31 30 29 27 25 24 22 22 21 21 21 21 18 21
62 65 68 71 73 74 74 73 73 74 68 59 55 59 62 57 56 55 54 51 45 39 41 39 38 35 34 34 32 33 33 34 34 33 33 33 32 29 27 25 23 23 24 24 24 24 21 22 23
72 72 74 76 77 79 82 81 81 78 75 69 61 62 67 62 58 59 57 54 53 48 45 43 41 39 34 36 34 32 32 33 33 35 36 33 32 30 29 28 28 26 25 25 25 23 24 25 23
80 77 77 77 79 81 82 83 86 81 79 73 67 65 71 69 63 62 60 58 56 53 50 49 45 44 37 33 35 34 34 34 33 35 38 35 34 33 32 31 30 29 27 26 25 25 25 24 23
81 74 71 70 71 75 80 83 85 83 82 81 74 71 75 77 70 65 64 63 62 58 55 53 50 48 44 35 33 35 35 35 36 36 39 39 37 37 35 34 32 30 29 29 28 28 26 24 23
66 63 56 58 60 61 69 70 79 87 87 84 84 79 81 83 76 70 68 68 68 62 59 57 52 51 50 42 39 36 38 37 38 37 39 43 42 40 39 36 35 33 32 31 29 27 26 26 24
60 53 49 42 49 55 59 61 70 76 80 84 86 83 83 88 82 76 72 71 72 67 64 60 57 57 53 51 47 40 41 39 37 37 39 45 45 43 42 39 37 35 33 33 31 29 27 26 23
47 39 35 27 41 45 53 58 63 65 67 75 82 82 84 90 87 81 75 74 76 72 68 66 63 62 55 48 49 49 43 41 38 38 40 45 47 46 45 43 39 37 35 33 32 30 28 27 24
36 30 27 23 30 35 42 52 57 58 58 63 72 79 85 92 93 86 79 77 78 74 70 68 66 65 58 55 49 49 48 43 40 40 41 45 49 49 47 46 42 38 36 34 31 30 28 27 24
38 30 22 18 22 24 34 45 52 54 54 54 60 72 85 92 97 90 82 80 83 76 74 70 71 68 64 61 57 54 51 45 40 38 39 44 50 50 49 47 45 41 38 36 35 32 29 27 25
41 29 24 16 15 18 28 36 44 50 51 47 51 64 83 92 98 91 85 83 82 81 77 65 77 73 70 67 59 56 52 46 43 39 38 40 49 51 51 49 47 45 42 39 36 33 31 29 27
38 32 21 13 10 17 23 30 37 45 48 43 44 59 79 89 94 92 87 84 83 82 67 80 74 69 76 70 63 60 58 54 54 49 42 39 44 52 50 52 50 48 45 42 40 37 34 33 31
32 30 22 11 9 14 19 21 30 39 42 42 41 52 73 82 88 90 88 88 90 83 86 82 81 78 80 75 70 66 61 57 52 43 40 39 38 46 50 52 51 49 47 44 41 40 38 35 32
41 26 20 10 7 15 20 22 27 35 39 40 40 49 65 78 79 85 87 87 91 88 84 80 93 55 85 77 73 68 64 59 56 47 45 42 40 40 47 49 51 51 48 46 44 41 39 37 36
41 30 19 10 4 16 20 24 25 32 35 39 41 48 61 74 76 79 87 88 87 88 80 80 76 89 71 75 74 70 67 60 54 55 51 47 44 42 44 47 48 48 48 47 45 44 42 40 38
39 30 19 10 2 14 20 20 23 28 34 39 41 48 58 68 70 72 84 85 91 85 87 67 91 84 79 77 77 76 67 62 57 54 52 52 49 46 43 44 44 45 44 44 43 42 40 38 37
50 38 24 13 3 9 22 21 23 27 35 38 43 48 57 65 72 60 77 83 84 84 84 86 81 84 82 85 68 80 72 67 61 57 55 52 51 50 45 45 46 44 44 44 43 41 40 39 38
54 41 31 14 7 6 16 24 25 27 34 38 43 50 55 68 74 60 65 83 92 73 80 68 87 79 79 79 71 79 77 72 65 62 58 56 55 53 55 52 50 49 48 47 45 44 42 41 40
56 46 33 22 9 5 11 22 27 27 34 36 41 50 54 67 78 58 68 78 90 80 77 67 70 86 94 65 78 69 78 75 70 66 64 60 59 59 58 58 58 55 53 52 50 48 47 44 42
57 49 40 28 15 9 10 17 25 29 33 35 38 48 56 72 76 69 64 71 95 90 81 51 62 75 85 68 53 72 73 79 73 69 68 64 62 60 60 61 59 57 56 55 52 52 51 47 45
60 51 43 32 22 14 12 15 23 29 31 35 36 42 53 78 73 72 59 67 86 88 84 69 53 73 71 69 84 71 74 80 79 76 72 68 65 63 62 64 63 61 60 57 55 53 51 49 47
Wind_Direction
262 260 259 259 259 259 260 262 259 242 240 238 241 242 241 238 238 233 221 226 234 232 230 230 223 226 229 224 219 217 218 207 203 197 189 183 180 169 164 164 158 163 167 167 162 161 155 148 140
261 258 258 256 257 258 258 257 260 253 236 234 238 242 244 243 240 236 224 228 232 231 231 232 231 234 225 222 219 213 211 205 199 194 187 184 180 175 168 166 162 164 169 166 160 163 157 151 142
266 258 255 256 259 263 264 261 264 254 237 230 235 240 243 243 238 234 227 228 234 234 233 232 226 225 221 216 213 210 207 202 198 191 186 185 184 174 170 169 163 161 173 175 166 165 162 158 143
275 269 263 259 263 260 258 259 256 254 241 224 233 239 240 243 240 231 226 228 231 231 233 234 227 228 222 215 212 206 203 201 197 192 185 186 186 174 172 170 167 162 172 183 178 173 173 163 156
281 276 270 265 261 259 256 255 254 249 240 231 227 236 242 239 237 230 220 220 225 226 225 231 215 213 216 215 209 207 203 198 196 192 186 187 189 178 174 171 171 167 173 180 185 187 186 177 167
285 280 274 270 266 259 255 256 254 247 237 231 225 231 235 235 233 228 217 215 216 222 221 218 210 208 211 212 209 205 202 197 194 193 188 187 190 184 178 174 174 176 178 184 188 191 189 183 175
282 277 275 271 266 263 259 252 251 250 237 225 225 228 231 234 229 224 216 216 215 215 218 216 210 210 209 208 208 205 201 197 191 192 191 188 191 191 184 182 181 185 187 196 192 189 187 185 175
282 277 273 271 269 265 261 257 250 247 240 229 223 223 229 230 228 221 216 214 217 214 217 217 209 214 204 206 207 204 200 199 191 192 189 191 193 193 190 187 188 192 196 199 195 188 181 183 175
279 276 274 270 266 261 257 253 250 244 237 230 224 221 227 230 227 220 217 213 215 213 216 217 211 209 210 202 207 205 205 203 195 194 190 195 195 194 192 189 189 191 194 195 190 187 182 178 177
282 278 276 270 263 258 256 252 250 247 243 232 224 219 223 227 228 221 217 213 215 211 214 216 214 210 210 205 207 207 205 206 203 200 194 195 195 195 191 189 187 187 188 186 185 180 177 180 172
283 281 275 270 265 260 256 253 249 246 243 234 225 220 222 223 225 223 218 211 210 210 214 216 215 211 209 209 206 209 207 207 206 201 195 195 194 194 190 188 185 184 184 179 179 177 179 177 174
290 285 276 269 263 261 255 251 248 246 242 239 226 219 221 224 221 222 215 214 210 208 208 213 213 210 207 210 206 207 207 207 205 202 196 196 195 191 189 190 186 181 180 180 182 183 182 178 178
296 288 279 271 264 259 254 250 247 244 245 240 231 218 219 223 221 218 215 210 210 208 206 209 209 209 204 207 208 207 206 207 204 201 199 195 197 192 189 193 189 187 187 187 185 182 181 182 181
297 289 280 270 262 256 249 244 243 240 239 237 231 220 217 221 219 217 213 210 208 206 205 208 206 207 203 203 204 208 206 206 207 204 201 195 196 196 191 192 189 188 187 187 185 182 184 187 185
300 291 279 269 259 253 248 242 237 236 234 231 227 221 215 215 217 215 211 207 209 205 204 205 206 205 205 200 202 206 207 207 208 207 203 198 193 197 195 193 192 189 188 188 187 190 191 191 192
307 297 285 268 256 245 240 234 233 231 229 227 226 220 214 213 214 213 211 207 210 205 203 206 203 204 205 207 201 202 205 205 208 208 205 202 193 198 197 197 196 193 193 192 193 195 197 197 198
318 311 297 276 255 241 234 227 229 229 225 224 222 218 212 210 211 211 209 204 207 208 203 203 203 203 199 200 211 197 201 204 206 208 206 202 197 199 199 199 201 197 198 198 198 198 200 202 203
325 315 306 287 251 241 231 226 223 224 222 221 219 214 208 208 210 209 206 203 207 208 204 204 204 201 199 200 209 198 197 196 202 207 207 205 200 199 201 200 203 201 201 201 200 202 204 207 210
334 325 318 284 267 239 231 226 220 218 219 218 218 209 205 207 209 207 205 203 204 205 206 207 203 202 201 203 202 202 200 202 202 206 208 206 203 199 202 202 204 203 204 205 206 207 208 212 216
339 336 326 298 268 234 229 224 223 214 218 216 214 207 203 204 208 205 204 203 202 204 205 211 204 209 201 204 202 204 201 205 203 204 208 208 207 205 203 202 206 206 206 209 211 213 215 218 223
335 338 331 309 265 224 223 220 221 214 213 214 211 206 202 202 206 203 202 201 201 204 202 208 207 201 198 201 201 204 200 198 199 198 203 206 208 208 205 205 206 209 210 210 213 216 220 222 227
352 340 339 319 255 208 213 217 218 213 210 211 208 204 202 202 204 203 201 201 199 202 205 207 209 216 205 201 202 204 203 203 201 200 206 209 209 210 208 208 209 211 212 214 217 219 222 227 232
356 349 345 331 250 194 197 205 211 209 207 207 206 202 203 203 199 204 198 201 202 202 205 208 209 207 204 206 205 206 205 204 200 202 203 208 209 209 209 211 212 214 216 218 221 224 227 230 234
356 354 353 344 256 200 199 204 209 204 203 206 204 200 203 204 196 206 198 201 201 202 204 211 210 213 213 204 206 210 208 209 206 206 204 206 211 209 209 212 214 216 218 222 224 227 229 231 231
3 359 358 360 283 206 202 205 203 199 200 204 206 202 203 201 192 207 200 200 200 203 203 206 211 212 213 203 210 211 212 212 210 213 216 211 208 211 213 213 216 217 218 220 223 225 227 229 231
7 7 4 4 340 216 208 211 197 200 199 203 205 204 203 199 196 196 203 201 202 205 210 215 210 213 215 220 213 210 213 214 215 214 217 217 217 211 213 215 217 217 217 218 221 223 225 227 229
10 7 5 357 337 231 216 220 203 204 203 204 208 205 205 197 192 198 202 201 202 204 204 198 210 208 214 219 205 208 212 215 216 217 218 219 219 220 216 213 214 217 218 218 220 221 224 226 229
10 9 4 0 344 272 230 219 216 211 209 209 209 207 206 197 193 200 199 202 200 197 204 215 213 213 214 223 216 217 213 214 217 219 220 221 221 221 222 220 217 218 217 217 218 220 223 226 229
11 10 7 1 346 302 250 227 223 217 213 213 213 210 205 193 199 205 202 204 204 209 206 200 209 216 215 210 206 217 215 215 217 219 222 222 223 223 222 224 226 225 225 223 224 223 224 226 228
9 10 8 3 352 322 270 237 228 224 219 217 217 214 207 197 195 198 205 203 209 211 208 198 204 211 207 213 223 210 213 218 218 220 222 224 224 224 223 225 226 227 229 230 230 231 232 232 233
Height
5788 5787 5787 5787 5789 5788 5789 5792 5796 5803 5805 5806 5806 5805 5806 5806 5812 5821 5826 5826 5827 5830 5833 5836 5837 5840 5843 5846 5848 5852 5856 5857 5860 5862 5865 5867 5869 5870 5870 5873 5876 5879 5882 5885 5887 5889 5891 5892 5894
5780 5780 5779 5778 5780 5780 5782 5786 5791 5796 5796 5797 5798 5798 5799 5803 5805 5814 5818 5821 5823 5825 5829 5831 5833 5837 5838 5842 5845 5849 5853 5856 5857 5860 5863 5866 5868 5868 5870 5873 5876 5879 5882 5885 5887 5890 5891 5893 5894
5772 5771 5771 5769 5771 5773 5776 5779 5782 5785 5787 5789 5790 5790 5791 5796 5801 5806 5811 5814 5816 5820 5823 5826 5829 5831 5834 5837 5841 5845 5849 5853 5855 5858 5861 5865 5867 5867 5870 5872 5876 5879 5882 5885 5888 5890 5892 5893 5894
5762 5762 5761 5760 5763 5765 5767 5769 5772 5776 5779 5781 5782 5783 5785 5790 5795 5800 5804 5808 5810 5814 5818 5821 5823 5827 5830 5834 5837 5841 5845 5850 5852 5855 5858 5863 5865 5866 5869 5872 5875 5878 5881 5884 5887 5889 5891 5893 5894
5753 5751 5750 5751 5754 5756 5757 5757 5760 5765 5770 5773 5774 5776 5779 5783 5787 5793 5798 5802 5804 5808 5811 5815 5817 5821 5825 5829 5833 5838 5842 5845 5849 5853 5856 5859 5863 5864 5867 5871 5874 5877 5880 5883 5886 5888 5891 5893 5894
5742 5741 5739 5741 5743 5743 5744 5748 5749 5753 5758 5763 5766 5766 5770 5775 5779 5787 5792 5794 5797 5802 5805 5809 5812 5816 5819 5824 5829 5832 5837 5842 5845 5849 5853 5857 5861 5863 5865 5870 5872 5876 5879 5882 5884 5887 5890 5892 5894
5731 5727 5727 5728 5730 5730 5732 5734 5735 5738 5746 5752 5756 5757 5761 5766 5772 5778 5783 5787 5790 5794 5799 5804 5807 5811 5814 5820 5824 5829 5834 5838 5841 5846 5850 5854 5858 5862 5864 5868 5871 5875 5878 5880 5883 5886 5889 5891 5893
5716 5712 5713 5715 5716 5711 5714 5715 5722 5723 5733 5739 5744 5746 5752 5757 5761 5769 5775 5779 5783 5788 5792 5798 5802 5806 5810 5815 5820 5825 5830 5836 5837 5842 5847 5851 5855 5859 5862 5866 5869 5872 5876 5879 5882 5885 5888 5890 5893
5699 5695 5696 5696 5695 5694 5692 5696 5702 5706 5717 5726 5732 5735 5740 5748 5752 5760 5766 5771 5776 5782 5788 5793 5797 5802 5806 5809 5816 5821 5827 5832 5834 5839 5844 5848 5852 5856 5860 5864 5866 5870 5874 5876 5880 5884 5887 5890 5892
5679 5677 5678 5675 5669 5670 5673 5677 5683 5689 5698 5712 5717 5723 5726 5735 5742 5749 5756 5763 5771 5778 5784 5788 5793 5797 5802 5805 5811 5817 5822 5828 5831 5835 5841 5845 5848 5853 5858 5861 5864 5868 5871 5875 5878 5882 5885 5888 5891
5660 5659 5654 5650 5646 5646 5650 5655 5660 5666 5677 5692 5703 5710 5713 5721 5729 5737 5746 5755 5763 5771 5775 5782 5787 5792 5796 5800 5805 5812 5818 5823 5827 5831 5836 5841 5844 5851 5856 5859 5863 5865 5869 5873 5876 5881 5884 5887 5890
5636 5631 5623 5620 5617 5617 5621 5628 5635 5642 5656 5668 5685 5694 5697 5705 5715 5724 5733 5744 5752 5759 5767 5773 5780 5785 5789 5794 5800 5807 5813 5818 5822 5827 5831 5838 5842 5847 5852 5856 5859 5863 5867 5871 5875 5878 5882 5885 5889
5602 5595 5587 5583 5583 5585 5590 5598 5607 5620 5631 5647 5663 5676 5682 5688 5698 5708 5719 5729 5740 5749 5756 5763 5771 5778 5783 5790 5795 5801 5807 5812 5817 5821 5826 5833 5839 5843 5848 5852 5856 5861 5865 5869 5872 5876 5880 5884 5887
5566 5557 5548 5544 5544 5549 5555 5568 5571 5594 5604 5616 5637 5654 5662 5664 5680 5693 5705 5718 5725 5738 5744 5753 5761 5769 5776 5783 5790 5796 5801 5807 5811 5816 5822 5828 5834 5839 5843 5848 5852 5858 5861 5865 5870 5874 5878 5882 5885
5533 5522 5521 5514 5513 5521 5521 5544 5545 5547 5569 5588 5600 5621 5633 5648 5664 5678 5690 5702 5711 5724 5735 5741 5751 5760 5768 5775 5783 5789 5795 5800 5805 5810 5816 5822 5827 5834 5839 5844 5849 5853 5858 5863 5867 5872 5876 5880 5884
5505 5495 5489 5493 5488 5491 5502 5511 5515 5524 5544 5555 5577 5601 5618 5632 5647 5661 5675 5690 5698 5710 5716 5731 5740 5748 5758 5766 5773 5780 5788 5793 5799 5805 5810 5816 5822 5828 5834 5839 5844 5849 5855 5859 5864 5868 5872 5877 5881
5483 5477 5472 5476 5467 5473 5480 5489 5497 5508 5525 5539 5555 5578 5601 5614 5629 5645 5661 5676 5686 5699 5710 5716 5726 5736 5745 5756 5762 5769 5779 5786 5793 5798 5804 5809 5816 5822 5828 5834 5840 5845 5850 5855 5860 5865 5870 5874 5878
5479 5470 5464 5461 5458 5461 5465 5473 5483 5495 5509 5522 5535 5557 5580 5597 5611 5628 5646 5662 5675 5688 5702 5710 5716 5726 5736 5746 5752 5759 5768 5777 5784 5791 5797 5803 5810 5817 5823 5829 5835 5841 5846 5852 5857 5862 5866 5870 5874
5470 5462 5458 5453 5452 5457 5458 5463 5473 5486 5497 5509 5522 5539 5560 5578 5593 5612 5631 5647 5661 5677 5690 5699 5704 5715 5725 5732 5741 5751 5761 5770 5778 5784 5791 5797 5804 5811 5818 5824 5830 5836 5842 5846 5851 5856 5862 5866 5870
5465 5458 5454 5450 5448 5452 5451 5458 5465 5477 5488 5500 5511 5526 5544 5561 5577 5599 5618 5633 5650 5663 5677 5675 5692 5702 5714 5723 5734 5744 5756 5764 5770 5778 5784 5791 5798 5804 5812 5818 5824 5830 5836 5842 5847 5852 5857 5861 5865
5462 5456 5451 5447 5445 5446 5449 5454 5460 5471 5483 5494 5504 5517 5531 5547 5562 5584 5604 5620 5637 5650 5662 5665 5674 5667 5698 5713 5722 5733 5743 5751 5755 5764 5774 5783 5790 5798 5805 5812 5818 5823 5830 5836 5841 5846 5851 5855 5859
5463 5454 5448 5445 5444 5445 5448 5454 5459 5468 5479 5489 5499 5509 5522 5536 5551 5570 5590 5606 5626 5634 5647 5660 5672 5678 5694 5699 5710 5723 5734 5745 5756 5763 5770 5778 5784 5791 5798 5804 5811 5817 5823 5829 5835 5840 5845 5850 5855
5461 5454 5448 5444 5443 5444 5447 5453 5456 5465 5476 5485 5494 5503 5513 5526 5542 5558 5578 5595 5610 5624 5637 5647 5662 5665 5676 5693 5703 5714 5724 5734 5745 5753 5761 5769 5777 5784 5791 5797 5804 5810 5816 5822 5828 5834 5839 5844 5848
5460 5454 5449 5445 5444 5446 5447 5452 5456 5464 5473 5481 5489 5497 5506 5518 5535 5548 5567 5583 5601 5614 5626 5637 5650 5665 5672 5678 5694 5708 5718 5727 5736 5744 5752 5761 5769 5777 5783 5790 5796 5803 5810 5816 5821 5826 5831 5836 5840
5466 5456 5451 5448 5446 5449 5450 5452 5457 5462 5470 5478 5485 5492 5500 5511 5530 5541 5559 5576 5590 5603 5617 5626 5639 5651 5660 5672 5683 5698 5712 5721 5729 5738 5747 5755 5762 5770 5777 5784 5790 5797 5803 5808 5814 5819 5824 5829 5833
5465 5457 5452 5450 5449 5450 5452 5453 5457 5460 5466 5473 5479 5487 5495 5507 5523 5537 5550 5566 5581 5594 5604 5619 5630 5641 5656 5666 5674 5688 5700 5713 5723 5730 5737 5745 5754 5762 5769 5776 5783 5789 5794 5799 5805 5810 5815 5820 5824
5470 5462 5456 5452 5450 5450 5451 5454 5457 5459 5464 5469 5475 5482 5490 5502 5515 5527 5540 5556 5571 5584 5596 5604 5621 5631 5643 5651 5662 5676 5687 5703 5712 5721 5729 5736 5743 5752 5759 5764 5772 5778 5785 5790 5795 5801 5806 5811 5816
5475 5465 5459 5453 5451 5450 5450 5452 5456 5458 5461 5465 5471 5478 5486 5497 5510 5521 5531 5546 5561 5571 5589 5598 5610 5622 5632 5642 5656 5665 5676 5691 5699 5710 5719 5727 5734 5741 5748 5755 5761 5767 5774 5779 5785 5791 5796 5802 5807
5481 5469 5460 5455 5452 5450 5450 5452 5452 5455 5458 5462 5467 5473 5481 5491 5504 5515 5525 5536 5549 5560 5574 5584 5599 5611 5624 5637 5644 5656 5665 5678 5687 5697 5707 5716 5724 5732 5739 5745 5751 5758 5764 5770 5776 5782 5787 5792 5798
5481 5472 5464 5458 5453 5450 5449 5451 5450 5452 5456 5459 5463 5468 5475 5486 5496 5509 5516 5528 5541 5551 5562 5570 5581 5593 5608 5620 5631 5644 5653 5665 5674 5685 5694 5703 5712 5719 5727 5735 5742 5748 5754 5759 5765 5772 5778 5783 5789